Regional Weather Roundup
Issued by NWS

Home | Current Version | Previous Version | Text Only | Print | Product List | Glossary Off
Versions: 1 2 3 4 5 6 7 8 9 10 11 12 13 14 15 16 17 18 19 20 21 22 23 24 25 26 27 28 29 30 31 32 33 34 35 36 37 38 39 40 41 42 43 44 45 46 47 48 49 50

000
ASUS45 KCYS 290710
RWRWY

WYOMING REGIONAL WEATHER ROUNDUP
NATIONAL WEATHER SERVICE CHEYENNE WY
100 AM MDT FRI AUG 29 2014

NOTE:  "FAIR" INDICATES FEW OR NO CLOUDS BELOW 12,000 FEET
WITH NO SIGNIFICANT WEATHER AND/OR OBSTRUCTIONS TO VISIBILITY.

WYZ001-290800-
YELLOWSTONE NATIONAL PARK

CITY           SKY/WX    TMP DP  RH WIND       PRES   REMARKS
LK YELLOWSTONE   N/A     48  46  93 NE3       30.32F
W YELLOWSTONE  NOT AVBL

$$
WYZ002>013-054>058-071-098>099-290800-
NORTHERN WYOMING

CITY           SKY/WX    TMP DP  RH WIND       PRES   REMARKS
JACKSON        CLOUDY    55  46  71 N13       30.22S
CODY           CLOUDY    64  45  48 W16G31    30.13R
GREYBULL       CLOUDY    68  54  60 NW12      30.00R
WORLAND        PTCLDY    62  47  57 N5        29.98R
SHERIDAN       MOCLDY    59  49  69 SW5       29.93F
BUFFALO        PTCLDY    64  43  46 SW5       30.01F
GILLETTE       CLEAR     58  48  69 SW6       29.96S
HULETT         FAIR      54  45  71 MISG      29.96
NEWCASTLE      FAIR      54  48  82 MISG      29.99

$$
WYZ014>020-022>026-101>103-290800-
CENTRAL WYOMING

CITY           SKY/WX    TMP DP  RH WIND       PRES   REMARKS
BIG PINEY      PTCLDY    49  42  77 E6        30.24F
PINEDALE       SUNNY     46  41  81 CALM      30.25S
DUBOIS         PTSUNNY   52  41  66 NW10      30.24F
LANDER         CLEAR     63  44  50 CALM      30.08R
RIVERTON       CLEAR     63  39  41 NW14      30.08S
CASPER         CLEAR     56  43  61 W3        30.06F
DOUGLAS        CLEAR     55  50  83 CALM      30.06R

$$
WYZ021-027>030-104>119-290800-
SOUTHERN WYOMING

CITY           SKY/WX    TMP DP  RH WIND       PRES   REMARKS
EVANSTON       CLEAR     53  43  68 SE9       30.27F
KEMMERER       SUNNY     54  43  66 NW6       30.28S
FORT BRIDGER   FAIR      58  44  57 SW12      30.29F
ROCK SPRINGS   CLEAR     59  43  55 SW15      30.23S
DIXON          FAIR      52  48  86 SE3       30.26S
RAWLINS        MOCLDY    58  42  55 W9        30.19F
SARATOGA       PTSUNNY   50  45  81 SE3       30.24S
LARAMIE        CLEAR     45  42  89 SE8       30.22S
CHEYENNE       CLEAR     52  45  77 W13       30.13F
TORRINGTON     CLEAR     53  50  89 E7        30.01S
PINE BLUFFS    FAIR      48  46  93 SE3       30.08F

$$


USA.gov is the U.S. government's official web portal to all federal, state and local government web resources and services.